GFSGBSN_sfc_wetblb_132.txt.gz
Wetbulb
58.86 59.04 58.87 58.69 57.83 57.26 56.97 56.99 57.25 57.23 57.44 57.63 57.80 57.75 57.34 56.99 56.71 56.89 56.90 56.95 57.03 56.71 56.62 56.93 57.20 58.16 59.68 56.07 55.56 64.28 70.00 68.19 62.28 58.20 57.04 58.58 60.38 64.09 62.40 61.79 62.72 63.01 64.94 65.71 66.40 65.97 63.20
58.64 58.19 58.18 58.23 57.76 57.57 57.46 57.20 57.04 56.64 56.39 56.38 56.69 56.75 56.42 56.11 56.27 56.27 56.09 55.87 55.53 55.82 56.45 56.67 57.48 58.51 58.60 53.49 63.55 66.79 64.80 62.16 58.11 56.94 56.22 60.69 62.42 64.12 61.09 62.29 62.86 65.00 65.26 65.30 66.09 65.51 64.80
57.74 57.65 57.73 57.53 57.36 57.44 57.04 57.35 57.07 56.90 56.41 55.96 55.85 56.20 56.20 56.36 56.40 56.24 55.71 55.12 55.33 55.69 56.34 56.94 58.06 60.12 57.41 57.20 64.44 63.47 62.24 58.59 57.15 56.41 55.21 58.38 61.95 62.11 60.60 63.34 66.78 65.43 62.72 64.75 64.24 64.93 63.67
57.43 57.57 57.24 56.83 56.64 56.47 56.68 56.73 56.75 56.56 56.36 56.23 55.96 55.81 55.57 55.85 56.00 55.67 55.07 54.57 56.02 57.10 56.34 57.16 59.00 60.47 55.16 60.79 64.72 61.66 61.43 58.31 57.26 56.39 55.72 57.82 60.20 61.37 62.53 68.16 65.39 62.80 62.72 58.40 62.58 64.06 64.71
57.79 57.13 56.89 56.74 56.54 56.11 56.37 56.27 56.50 56.28 56.23 56.15 56.00 55.67 55.34 55.35 55.14 55.10 54.35 54.80 57.82 57.71 57.95 58.90 61.20 59.11 55.92 60.66 58.53 61.78 62.35 58.94 57.60 56.56 56.02 55.97 58.62 60.28 64.23 62.09 59.45 60.73 56.20 56.70 59.05 63.54 62.80
57.61 57.30 56.85 56.60 56.47 56.30 56.25 55.94 56.15 56.31 56.05 56.06 56.47 55.83 55.26 55.10 54.78 54.41 53.96 54.65 59.03 59.32 61.20 61.10 60.75 57.36 57.90 56.62 59.11 61.12 61.99 57.73 55.13 54.21 52.37 55.15 59.19 57.91 59.57 59.28 52.80 54.26 54.29 56.59 57.52 60.99 62.68
57.66 57.74 57.31 56.94 56.66 56.38 56.31 55.81 55.76 55.68 55.98 56.08 56.18 55.67 55.22 54.64 54.39 53.55 55.09 59.72 59.55 58.50 59.63 56.12 56.54 55.69 57.18 59.94 59.93 59.33 59.46 53.95 53.47 52.26 49.27 54.33 53.41 52.79 55.95 59.01 56.74 56.59 55.48 56.16 58.98 62.32 61.20
58.02 57.29 57.25 56.60 56.85 56.87 56.41 55.83 55.90 55.63 55.44 55.46 55.46 55.34 54.76 54.27 53.71 53.90 57.02 58.52 57.34 57.68 55.12 57.38 57.42 57.92 59.28 60.30 54.59 57.74 58.90 54.13 50.27 48.31 50.84 51.56 50.30 55.55 56.72 58.40 56.60 55.68 55.68 56.22 59.03 60.90 60.38
58.06 57.80 57.20 57.02 56.62 56.46 56.49 56.41 55.90 55.62 55.09 55.17 55.15 55.43 54.21 53.90 53.90 56.06 59.67 58.34 60.15 59.42 55.98 55.95 57.86 57.00 57.58 59.49 54.65 55.44 58.29 55.46 51.18 48.99 49.47 48.78 51.73 56.07 54.79 54.83 54.69 55.47 54.97 55.58 55.77 59.45 60.90
57.82 57.54 57.02 56.73 56.45 56.27 56.21 56.06 55.68 55.34 54.91 54.70 55.04 55.24 53.71 52.76 54.57 60.37 58.36 59.50 60.31 59.57 53.25 52.60 54.87 57.00 58.05 56.98 53.45 57.95 59.08 56.11 52.41 49.45 49.99 50.35 53.99 53.81 54.26 53.33 55.52 52.75 57.15 57.72 56.05 55.66 52.98
57.56 57.43 57.28 56.72 56.57 56.11 55.55 55.68 55.68 55.51 54.62 54.59 54.76 54.37 53.03 51.94 58.38 57.91 58.53 60.38 61.19 59.16 44.68 53.30 54.27 59.97 57.36 54.71 54.79 55.13 59.17 55.79 50.57 50.61 51.38 49.76 51.25 52.57 52.43 53.30 55.24 53.95 58.04 57.86 56.80 55.94 55.60
57.68 57.57 57.17 56.84 56.51 55.91 55.51 55.38 55.31 55.19 54.43 54.24 54.26 53.34 52.57 55.83 58.63 58.42 60.68 60.44 59.60 51.15 42.52 51.05 54.32 53.61 53.61 54.65 53.50 55.21 54.93 56.94 55.08 51.49 51.90 51.49 53.57 53.94 53.94 55.66 55.68 58.38 57.38 57.45 57.37 55.76 49.88
57.92 57.50 56.98 56.66 56.31 55.47 55.34 55.28 54.96 54.58 54.12 53.90 53.39 52.22 52.87 58.52 59.05 61.83 60.26 59.33 51.39 46.26 51.67 49.68 51.41 53.80 53.01 52.22 51.86 53.00 51.86 51.37 50.25 47.38 47.37 49.78 50.42 52.62 54.24 52.26 55.32 56.16 53.93 48.54 47.29 48.45 48.62
58.07 57.74 56.88 56.33 55.86 55.65 55.48 55.27 55.10 54.50 53.96 53.19 51.87 50.80 55.37 59.50 62.17 60.18 59.96 55.42 45.56 47.77 48.81 52.57 52.72 53.34 51.29 52.52 52.09 51.68 50.67 49.50 52.19 51.14 49.27 46.40 44.37 50.53 54.43 52.99 52.39 53.97 53.11 48.49 41.91 45.74 48.13
57.33 57.86 57.12 56.30 55.82 55.65 55.76 55.21 54.85 54.19 53.79 52.67 50.83 60.20 61.02 61.76 61.10 60.73 57.45 49.40 49.52 49.44 51.38 50.39 52.47 50.54 50.82 52.31 52.84 51.33 50.47 50.93 52.33 53.53 49.28 47.82 47.15 53.58 55.74 55.26 55.72 53.15 51.04 55.36 50.06 52.24 50.08
57.49 57.43 57.62 56.24 55.90 55.44 55.61 55.21 54.65 54.25 53.61 52.46 57.72 60.44 60.88 61.57 61.66 59.91 54.97 47.37 51.07 53.01 52.61 51.70 48.74 50.94 48.95 50.82 50.78 50.52 50.28 53.06 52.28 53.77 54.82 51.62 47.92 55.04 57.08 58.93 57.58 56.53 57.09 50.59 51.38 44.54 43.55
57.61 57.17 57.26 56.62 55.80 55.59 55.58 55.19 54.50 54.00 53.03 52.59 58.63 56.31 60.21 61.26 61.03 57.79 51.31 51.30 52.10 54.71 54.18 51.08 49.78 50.22 50.77 50.58 51.79 50.19 50.93 54.07 54.66 53.86 54.51 53.90 52.04 52.44 57.43 55.88 54.33 55.18 53.62 53.87 53.16 51.52 46.23
57.59 57.15 57.14 56.66 55.63 55.51 55.70 55.06 54.23 52.93 51.86 54.54 56.01 52.47 60.36 60.74 54.96 56.70 52.56 53.05 51.25 53.22 53.81 52.38 52.90 52.07 51.26 51.56 51.39 51.30 50.63 53.44 55.22 54.55 51.94 53.96 52.39 48.72 51.77 54.63 55.89 57.79 54.95 54.07 48.54 46.30 51.75
57.72 57.18 57.16 56.66 55.73 55.76 55.82 54.94 53.98 52.62 52.21 55.67 54.75 56.32 61.21 60.03 51.80 52.70 54.15 52.67 53.97 52.90 52.60 51.06 50.41 51.81 53.89 51.74 49.84 51.55 52.39 54.94 55.49 54.47 53.80 54.31 51.43 46.99 48.81 52.71 54.92 53.11 55.04 56.41 55.15 49.47 45.51
57.84 57.42 57.19 56.58 55.62 56.04 55.78 55.02 53.92 52.87 52.53 55.40 54.25 51.64 56.87 58.12 57.66 54.76 53.27 52.64 52.28 54.19 53.00 51.75 51.86 53.44 52.90 51.28 52.95 51.41 51.74 54.07 55.10 55.72 53.87 57.10 52.12 50.03 45.72 49.07 52.77 50.66 53.55 54.88 53.64 49.19 49.35
58.09 57.16 56.85 56.38 55.83 56.06 55.96 55.49 54.61 53.36 52.53 55.63 54.60 52.78 55.59 52.39 53.97 54.56 54.93 53.76 51.83 50.25 53.28 53.65 52.48 51.88 51.07 49.12 50.23 50.43 52.09 53.56 54.29 54.27 55.79 54.68 50.56 52.05 52.88 53.14 52.67 52.04 52.57 53.33 52.78 54.14 51.10
57.91 57.02 56.90 55.76 55.53 55.69 56.28 55.93 55.46 53.88 52.61 56.46 53.61 53.48 59.47 56.58 55.63 55.44 50.99 53.29 52.19 52.75 51.92 51.18 51.41 51.54 52.04 50.27 50.49 49.99 51.75 52.24 51.77 54.66 54.27 53.92 51.64 52.86 50.82 52.89 53.36 51.07 51.72 51.48 54.15 54.35 55.05
57.61 56.88 56.52 55.38 55.23 55.04 55.40 55.67 55.46 53.84 52.85 56.01 56.66 57.32 55.43 51.81 55.52 54.54 53.66 53.52 52.94 53.32 52.52 52.91 52.84 52.26 51.34 52.49 54.76 54.76 55.44 55.17 55.34 53.89 51.92 52.16 52.37 50.26 46.05 51.90 50.70 48.55 52.88 53.25 53.75 56.25 55.64
57.17 56.44 56.28 55.27 55.04 55.22 54.93 55.71 55.91 55.14 53.61 55.01 53.29 54.25 52.03 48.93 52.27 54.11 54.24 55.12 54.24 54.37 51.66 51.37 53.28 53.72 54.65 58.01 56.97 56.10 55.52 55.46 55.31 55.65 54.98 51.74 51.12 51.43 47.76 50.31 41.74 51.81 56.80 56.73 54.97 56.60 58.85
56.73 56.38 55.90 55.05 55.03 55.11 54.89 55.36 55.90 56.05 54.47 54.87 54.05 53.59 52.50 49.12 51.16 52.39 54.94 55.61 56.09 55.55 52.55 50.99 53.79 55.65 58.28 55.69 51.52 48.86 49.47 50.93 51.78 53.70 53.58 55.74 52.66 49.16 45.57 45.91 48.38 50.28 54.39 54.17 53.02 53.66 58.24
56.57 56.27 55.41 54.88 54.66 54.85 54.79 55.08 55.62 56.34 55.22 55.63 54.73 54.13 52.88 50.46 50.63 53.38 53.94 56.08 54.40 51.76 51.23 52.59 52.22 57.01 55.06 52.67 50.15 44.77 44.37 46.01 45.81 49.18 54.08 52.82 55.11 50.13 48.29 43.51 41.39 51.41 55.60 57.88 57.27 49.04 59.01
56.41 55.95 55.06 54.33 54.11 54.54 54.61 54.70 55.86 56.75 55.61 55.35 54.77 54.25 52.74 50.13 53.62 54.67 52.40 53.52 56.24 52.51 50.89 52.34 51.23 50.95 54.32 50.74 47.36 46.48 46.70 50.47 44.70 45.68 48.01 49.49 50.21 47.29 47.59 45.60 48.20 54.64 56.29 57.44 47.73 51.64 58.65
55.97 55.34 54.57 53.94 53.78 54.33 54.48 54.44 55.61 56.31 56.04 55.38 54.34 55.32 52.29 52.08 54.16 55.13 56.32 56.60 56.62 54.65 50.72 53.42 50.30 51.50 51.01 49.25 48.98 48.81 48.08 50.23 48.68 50.53 48.78 47.98 46.99 47.19 48.43 45.64 43.38 56.95 55.74 51.70 56.61 59.35 59.99
55.52 54.90 54.29 53.86 53.65 54.27 54.09 53.98 55.28 56.42 55.89 55.51 51.85 55.02 54.83 50.09 52.74 56.54 57.17 58.04 57.93 58.02 56.77 54.48 54.38 53.14 53.90 51.82 52.75 53.87 49.56 51.72 49.50 45.33 54.10 47.05 50.00 49.70 48.93 50.54 57.28 59.04 57.92 59.41 59.86 60.26 60.50

GFSGBSN_sfc_wetblb_135.txt.gz
Wetbulb
59.20 59.01 58.90 58.72 58.29 58.07 57.90 57.99 57.60 57.28 56.97 56.83 57.10 57.28 57.09 56.93 56.97 57.11 57.13 56.93 56.76 56.75 57.07 57.69 58.04 58.40 60.86 59.67 58.63 69.04 67.98 67.11 63.99 62.40 59.03 59.23 59.90 64.23 62.12 63.76 64.97 63.56 66.05 66.93 67.09 65.68 64.22
58.32 58.17 58.10 58.01 57.83 57.88 57.70 57.82 57.72 57.57 57.11 56.94 56.58 56.41 56.41 56.62 56.99 56.99 56.99 56.43 56.08 56.21 56.81 57.70 58.20 58.39 61.97 55.72 64.53 67.90 63.10 61.14 60.51 59.08 58.63 60.45 61.48 65.88 63.65 62.87 63.19 66.29 66.45 66.25 66.99 66.59 66.05
58.04 58.02 57.71 57.38 57.16 57.01 57.03 57.16 57.13 57.32 56.96 56.84 56.77 56.45 56.27 56.25 56.51 56.69 56.35 55.91 55.75 56.55 57.29 57.86 58.68 61.42 60.81 58.36 63.84 64.46 63.06 59.73 59.02 59.29 57.23 61.23 64.90 64.07 62.97 63.71 66.01 65.90 63.15 65.30 64.90 65.41 63.81
58.16 57.87 57.52 57.26 56.81 56.67 56.69 56.53 56.51 56.72 56.52 56.81 56.67 56.70 56.53 56.35 56.38 56.28 55.86 55.48 56.23 58.52 58.22 58.23 59.13 63.80 56.78 63.22 65.10 62.09 60.82 59.04 58.46 58.09 58.55 60.12 63.87 63.35 62.29 66.87 64.45 62.28 63.02 59.14 64.11 65.00 65.29
58.36 58.09 57.80 57.28 56.85 56.63 56.45 56.37 56.49 56.52 56.14 56.46 56.57 56.63 56.48 56.31 55.97 55.59 55.23 55.23 57.22 59.00 58.89 59.19 62.33 63.17 56.87 60.85 59.70 62.46 63.18 58.72 56.53 56.82 57.98 58.69 61.76 61.46 62.03 61.30 59.88 61.19 54.15 54.42 60.66 64.95 64.02
58.33 57.93 58.07 57.17 57.27 56.63 56.43 56.33 56.10 56.10 56.22 56.56 56.08 56.02 55.80 55.65 55.18 54.90 54.61 54.96 59.41 59.39 60.68 63.87 63.39 59.76 59.62 57.49 59.89 61.01 62.18 59.07 56.71 55.12 54.05 56.08 58.25 58.08 58.71 59.11 51.73 52.20 56.93 57.59 58.02 63.20 63.57
58.79 58.06 57.50 57.31 57.20 56.78 56.76 56.50 56.51 56.14 56.29 55.86 55.73 55.57 55.49 55.24 54.88 54.25 55.61 61.59 61.67 61.43 62.94 56.85 56.49 55.90 57.71 60.03 61.80 59.64 59.62 56.01 55.78 53.66 50.12 53.98 53.99 53.17 55.82 58.94 58.32 57.15 55.99 57.06 58.61 63.84 61.97
58.68 58.20 57.66 57.20 56.79 56.75 56.41 56.20 56.39 56.09 55.90 55.71 55.38 55.38 55.04 55.11 54.39 54.29 56.80 60.90 59.74 60.36 56.33 58.40 57.99 58.09 59.45 60.39 56.14 57.57 58.36 53.42 52.19 49.92 51.97 51.38 50.63 55.95 57.46 57.96 58.42 56.34 54.78 55.98 59.34 62.56 61.30
58.51 58.04 57.76 57.60 56.90 56.74 56.66 56.31 55.65 56.11 55.55 55.42 55.36 55.51 54.90 54.29 53.96 56.89 62.35 60.70 63.09 62.60 57.39 56.73 58.22 57.58 58.57 60.13 55.51 56.29 58.31 55.85 51.85 49.98 50.50 50.17 52.30 54.97 55.65 56.48 55.73 55.61 54.46 55.86 56.90 59.51 61.21
58.25 57.83 57.51 57.43 56.79 56.28 55.71 56.25 56.08 55.95 55.34 54.95 55.21 54.84 54.41 52.71 54.80 63.22 60.47 62.35 63.36 62.89 54.22 54.17 56.04 57.14 58.26 58.25 54.28 58.19 59.78 57.21 52.98 50.61 50.68 50.97 54.16 54.41 54.84 54.16 55.60 52.69 56.97 57.37 56.08 55.62 50.94
58.37 58.00 57.39 57.25 56.90 56.60 56.13 56.11 55.98 55.65 55.06 55.03 55.10 54.63 53.29 52.03 59.09 60.18 61.53 63.34 63.65 62.19 46.38 54.76 55.78 61.19 58.73 56.18 55.79 55.56 59.14 56.45 52.50 51.77 51.94 50.39 51.55 52.29 52.67 53.72 55.87 54.62 58.48 56.65 56.74 56.02 55.78
58.86 58.47 57.75 57.22 56.90 56.49 56.04 55.93 55.76 55.28 55.05 55.05 54.78 54.03 53.25 58.14 60.21 61.77 62.05 63.09 62.36 52.11 45.30 52.85 55.86 55.12 55.13 55.73 53.97 55.78 55.66 57.90 55.46 52.40 52.61 53.05 55.16 54.46 54.69 55.82 56.13 56.72 56.53 56.54 57.12 55.82 50.43
58.12 58.05 58.28 57.19 56.90 56.03 55.76 55.80 55.40 55.08 54.78 54.35 53.45 52.26 54.10 61.59 60.91 63.87 62.88 60.47 52.39 47.64 53.64 51.45 53.22 54.96 54.63 53.35 52.74 53.81 52.89 52.52 51.31 48.88 48.75 50.73 51.14 53.55 55.21 52.93 56.08 55.19 53.69 48.67 48.18 48.68 48.03
58.01 57.74 57.79 57.39 56.35 55.89 55.54 55.84 55.32 54.80 54.60 53.49 51.88 50.99 57.87 61.65 63.69 62.34 61.63 56.32 48.44 50.50 50.57 54.01 53.40 54.23 52.89 53.44 53.25 52.21 51.68 51.18 52.91 52.04 50.83 47.83 45.77 50.92 53.66 52.93 52.40 53.00 52.90 48.49 43.20 43.93 48.36
58.20 58.00 57.78 57.44 56.47 55.81 55.36 55.28 55.15 54.45 54.19 52.89 51.21 62.21 62.59 63.21 63.35 62.94 58.02 51.30 51.30 50.95 52.78 51.62 53.55 52.65 52.32 53.27 53.39 52.27 51.98 52.20 53.59 54.07 50.38 49.68 48.33 53.17 53.76 54.47 54.53 53.06 50.68 54.82 49.96 53.23 51.09
58.59 58.14 57.80 57.55 56.77 55.85 55.84 55.52 54.88 54.49 53.80 52.71 58.81 60.21 60.79 63.90 64.15 61.53 56.05 49.56 52.79 54.35 53.85 52.93 50.53 52.24 50.68 52.78 51.92 51.43 51.05 53.78 53.26 54.33 56.07 52.90 49.54 53.53 54.01 55.86 55.59 54.68 57.16 49.80 50.99 46.09 45.37
58.94 58.20 57.63 57.53 56.72 55.84 55.84 55.62 54.97 54.19 53.18 52.64 59.24 57.18 62.57 64.41 63.27 58.33 52.67 53.76 53.33 55.34 55.18 52.67 51.21 51.15 52.40 51.89 52.98 51.54 51.87 54.45 55.03 54.99 55.70 54.98 52.98 51.83 55.96 53.58 49.87 53.49 53.74 55.03 53.93 51.23 47.43
59.22 58.35 57.53 57.48 56.62 55.94 56.12 55.66 54.70 53.37 52.08 56.07 58.73 52.78 63.66 63.55 55.01 56.71 54.28 55.75 51.94 54.67 55.72 54.26 53.85 53.48 52.72 52.99 52.88 52.18 51.47 54.45 56.43 56.29 53.21 55.61 53.00 51.38 52.57 55.99 55.66 51.89 55.34 55.59 50.19 50.43 51.10
59.11 58.52 57.79 57.59 56.44 55.96 56.22 55.51 54.55 53.18 52.59 56.20 56.57 56.30 63.28 61.80 52.23 53.87 56.43 54.69 54.83 53.82 54.11 53.00 52.06 52.64 54.11 53.05 51.15 53.05 53.68 56.40 56.17 55.88 54.89 56.38 51.48 47.80 50.49 54.12 55.55 53.72 54.49 53.55 51.19 53.20 48.53
59.27 58.81 57.93 57.57 56.71 56.27 56.24 55.59 54.54 53.79 53.42 55.18 57.02 51.38 57.52 59.13 57.99 55.71 55.43 54.51 53.06 55.28 54.70 54.49 52.84 53.65 52.75 52.65 54.48 52.97 52.91 55.43 55.92 56.12 59.29 57.56 52.46 50.80 46.67 46.95 51.96 52.10 52.79 52.12 49.91 46.63 49.29
59.25 58.97 57.98 57.28 56.56 56.08 56.29 55.81 54.86 54.16 53.46 55.35 57.77 52.80 57.91 53.04 54.29 55.48 56.83 55.82 53.25 53.00 54.91 55.25 52.87 52.37 52.52 50.79 51.51 51.45 53.11 54.82 55.80 57.06 56.21 55.38 51.09 52.37 53.21 53.32 53.57 50.94 49.77 53.43 52.31 53.72 49.79
58.59 58.67 57.77 56.99 56.32 55.78 55.91 55.63 55.26 54.42 52.96 57.59 55.47 55.21 57.41 56.56 58.03 55.69 52.48 54.49 54.05 54.32 54.51 52.95 52.39 53.46 53.01 51.55 51.79 51.05 52.51 53.59 53.22 56.36 54.92 56.25 51.23 53.40 51.31 53.72 52.98 51.02 53.18 52.54 53.27 53.31 52.17
58.08 58.40 57.33 56.82 55.69 55.44 55.57 55.57 55.42 54.62 53.16 58.36 59.59 58.95 55.78 51.61 54.60 54.74 54.70 54.56 54.84 56.04 56.33 55.45 54.79 53.53 52.41 53.36 54.94 55.69 55.58 55.27 56.06 54.45 54.06 53.40 52.75 51.48 47.98 52.85 51.30 49.53 52.41 53.74 53.72 54.54 54.65
57.57 58.07 57.11 56.50 55.60 55.59 55.63 55.54 55.87 55.59 54.29 57.95 58.80 56.29 53.71 49.95 51.65 53.90 54.89 54.97 54.73 55.70 54.61 55.55 55.42 54.38 56.47 58.48 57.00 56.15 55.45 55.25 54.82 55.13 55.36 52.79 53.25 51.82 48.61 50.81 41.22 49.26 57.56 56.70 55.77 55.76 58.04
57.48 57.65 56.77 56.22 55.37 55.33 55.43 55.23 55.87 56.17 55.83 57.22 59.52 56.24 54.62 49.76 52.04 52.49 53.77 55.59 56.66 57.36 55.85 55.70 55.11 56.69 59.47 56.51 52.30 51.16 51.21 52.23 53.39 54.77 53.99 54.07 52.79 50.00 46.70 46.77 50.50 52.38 54.87 54.17 53.06 52.31 58.23
57.57 56.98 56.51 55.85 55.08 54.80 55.08 54.99 55.21 56.56 56.14 56.70 58.27 58.25 54.93 50.89 51.17 54.38 52.95 55.01 55.19 55.45 55.57 55.84 56.38 58.83 57.43 52.83 51.30 46.26 45.37 47.90 47.92 50.90 55.21 53.44 54.66 51.24 49.41 45.25 42.94 50.41 55.76 58.40 56.53 49.59 60.27
57.41 56.65 56.24 55.62 54.73 54.64 55.01 54.91 55.19 56.47 56.28 55.99 55.82 58.49 55.08 51.77 54.84 55.23 53.04 53.72 57.42 57.09 55.45 55.12 54.00 54.38 55.89 51.07 48.07 47.52 47.69 49.80 45.73 46.87 49.60 49.08 50.17 47.99 47.65 46.02 48.75 56.55 56.93 57.36 46.54 52.08 60.12
56.65 56.45 55.63 55.15 54.36 54.24 54.57 54.65 54.79 55.94 56.58 56.07 55.88 57.84 54.46 52.67 55.45 57.29 57.21 55.35 57.31 58.17 53.94 55.66 52.76 53.25 51.78 49.85 49.50 49.54 49.31 51.51 49.44 51.16 50.72 49.31 48.53 47.48 48.87 46.33 43.64 57.85 56.39 50.91 58.59 60.68 60.78
56.01 55.61 55.16 54.82 54.09 53.80 54.54 54.36 54.54 55.71 56.57 55.66 53.56 57.84 56.80 51.23 54.07 57.37 58.18 59.28 59.00 60.75 58.46 57.51 53.71 53.91 53.09 51.10 51.95 52.09 50.83 51.82 51.34 46.60 53.76 47.99 51.14 49.65 51.69 50.23 57.75 59.13 58.64 61.04 60.38 60.43 61.55

GFSGBSN_sfc_wetblb_138.txt.gz
Wetbulb
58.80 58.76 58.40 58.03 58.31 58.06 57.99 58.33 58.04 57.70 57.58 57.41 57.30 56.98 56.89 56.85 57.22 57.50 57.75 57.51 57.10 56.96 57.12 57.89 58.50 58.78 59.80 60.36 59.62 68.36 70.31 67.02 60.62 62.17 61.27 58.37 58.41 59.96 60.04 61.48 66.20 64.62 65.52 66.74 66.04 65.60 64.02
58.42 58.24 58.23 58.04 57.63 57.34 57.17 57.72 57.48 57.42 57.23 57.23 57.13 56.92 56.93 56.77 56.93 57.53 57.52 57.30 56.94 56.91 57.40 58.08 58.78 58.72 59.72 57.37 63.82 66.98 61.13 59.05 60.46 60.59 58.89 59.74 59.61 62.42 62.45 62.40 63.83 64.70 65.23 65.85 66.03 65.87 65.15
58.60 58.35 58.19 57.59 57.28 57.11 57.00 57.13 56.86 56.79 56.88 57.08 57.10 57.01 57.18 57.12 56.99 57.49 57.14 56.94 56.78 57.19 58.21 59.05 58.98 60.52 60.72 58.68 63.32 64.39 61.31 58.84 60.43 59.68 57.59 60.33 62.10 63.50 63.77 61.32 67.09 64.36 62.07 64.07 65.35 65.75 64.54
58.73 58.33 57.93 57.55 57.60 57.55 57.27 56.81 56.65 56.59 56.53 56.68 56.66 56.77 56.75 56.88 56.88 56.83 56.58 56.06 56.39 57.93 60.15 59.41 58.99 61.67 57.53 63.16 64.72 62.00 61.94 59.31 58.48 59.60 59.06 60.37 63.11 62.65 62.25 65.64 63.19 61.15 61.89 57.96 63.79 65.00 64.87
58.92 58.58 58.10 57.95 57.62 56.99 56.67 56.74 56.55 56.52 56.36 56.34 56.28 56.28 56.24 56.38 56.23 56.38 55.76 55.48 57.01 59.60 60.23 59.39 60.66 62.26 57.58 62.54 59.22 62.43 62.17 57.83 57.65 57.13 58.50 59.05 58.94 59.69 60.65 58.92 58.31 59.15 54.65 56.01 55.53 63.61 64.16
58.63 57.72 57.92 57.61 57.24 56.80 56.56 56.51 56.54 56.39 56.29 56.15 55.95 55.78 55.76 55.77 55.81 55.50 54.76 55.21 60.08 59.50 61.66 63.78 63.56 59.44 59.97 57.74 59.91 60.87 62.29 60.27 55.28 54.95 54.14 54.29 55.52 55.80 57.32 56.13 51.26 52.72 54.64 56.95 53.32 62.56 63.79
58.91 58.81 58.10 57.87 57.00 56.64 57.15 57.08 56.11 56.21 56.11 55.99 55.78 55.41 55.43 55.53 55.52 54.50 55.79 61.96 60.89 59.62 62.68 58.90 58.43 56.67 57.48 59.82 61.36 59.63 59.82 57.05 56.80 54.02 49.31 52.36 51.35 51.04 54.64 56.77 58.81 57.55 56.56 55.71 60.44 62.62 61.71
58.61 58.47 58.30 58.04 57.05 56.70 56.34 56.83 56.18 56.21 56.08 55.80 55.68 55.75 55.56 55.19 54.82 54.34 55.11 60.39 60.08 60.98 56.71 58.26 57.91 57.72 59.56 60.43 55.90 57.38 58.40 52.89 52.51 49.59 51.15 50.53 48.72 53.99 56.53 57.05 57.98 57.54 55.31 55.60 60.09 62.44 61.28
58.89 58.52 58.00 57.83 57.48 57.11 56.87 56.62 56.58 55.92 55.69 55.58 55.79 55.52 55.15 54.44 53.87 55.91 60.63 61.83 63.77 63.26 57.17 57.12 58.80 58.22 58.32 60.02 56.18 56.15 56.55 56.32 51.37 49.92 49.85 48.80 51.07 54.16 54.81 55.12 56.22 56.51 54.62 55.93 55.65 58.30 60.61
59.23 58.64 57.91 57.67 57.44 56.92 56.76 56.55 56.52 56.13 55.89 55.64 55.64 55.42 54.74 53.20 55.19 62.96 60.89 63.53 64.20 63.80 53.12 54.30 55.78 56.98 58.64 58.97 54.16 58.27 59.76 57.25 53.42 50.41 50.74 50.40 53.48 52.65 52.85 52.77 55.97 51.98 58.01 57.82 57.41 54.77 50.65
58.62 58.56 58.70 57.76 57.36 56.52 56.42 56.25 56.23 56.05 55.60 55.62 55.58 55.11 53.87 53.12 57.16 59.33 62.31 64.20 63.73 61.83 45.19 55.44 56.18 61.30 59.01 56.39 56.23 55.52 59.27 56.67 53.29 52.18 51.32 49.66 50.74 52.08 52.33 54.03 55.61 53.14 57.28 56.36 56.36 54.66 54.23
58.56 58.42 58.27 58.38 57.46 56.65 55.98 55.85 55.82 55.56 55.36 55.23 54.91 54.42 53.16 58.03 58.42 60.11 62.89 63.39 61.87 51.85 45.38 53.21 55.97 55.21 54.75 55.96 54.31 55.84 55.49 57.98 56.85 52.85 52.64 52.81 55.79 53.78 53.49 55.25 55.70 56.64 56.86 56.91 56.84 55.02 48.34
59.01 58.85 58.23 58.09 57.72 56.76 55.89 55.63 55.60 55.34 54.85 54.40 53.56 52.66 52.94 59.25 60.25 64.11 63.51 60.44 50.98 47.36 54.70 52.06 53.17 55.08 54.68 53.82 53.08 53.62 52.97 52.24 50.61 48.48 48.24 50.80 51.28 53.92 55.15 52.94 55.32 54.51 51.88 46.79 46.33 46.48 46.42
59.23 58.82 58.37 57.80 57.60 56.61 55.99 55.89 55.72 55.13 54.62 53.76 52.06 51.26 55.98 59.07 61.33 62.34 61.09 55.36 47.46 53.67 51.32 54.90 53.55 54.03 52.50 53.66 53.40 52.81 52.12 50.93 53.45 51.87 50.60 48.13 45.67 50.79 53.80 52.97 52.07 52.51 51.79 46.86 43.17 43.89 45.40
59.58 59.19 58.56 57.82 57.51 56.75 56.03 55.76 55.42 54.77 54.28 53.05 51.38 62.03 60.15 62.25 62.58 62.21 57.54 50.00 51.29 54.45 53.28 51.75 53.75 51.74 52.83 53.38 53.30 52.77 51.64 51.99 53.67 54.06 49.89 50.07 47.92 53.09 53.25 53.42 53.07 51.47 49.77 52.99 47.88 50.78 47.07
59.92 59.72 58.88 58.06 57.51 56.95 56.11 55.88 55.42 54.85 54.27 52.80 56.80 59.36 60.19 61.68 62.52 59.97 54.70 48.45 54.09 56.08 54.45 53.11 49.97 53.76 50.91 52.75 51.85 51.47 51.45 53.66 53.22 54.47 55.69 53.43 49.21 54.81 52.61 54.61 53.82 52.26 54.56 49.92 49.70 44.39 42.47
60.19 59.81 58.97 58.18 57.47 57.01 56.25 56.05 55.37 54.60 53.77 52.75 58.44 56.02 60.65 63.35 62.48 57.63 51.47 52.83 55.44 56.32 55.07 52.70 51.62 51.41 52.27 52.71 53.10 52.82 51.85 54.29 54.78 55.04 54.70 53.97 51.96 51.85 54.65 52.89 51.76 53.02 50.62 54.57 53.51 51.05 46.87
59.97 59.56 58.98 58.37 57.57 56.99 56.49 56.13 55.17 53.78 52.57 56.40 58.63 53.15 62.56 63.34 54.76 55.91 52.88 54.80 54.80 55.32 55.72 54.43 53.69 53.39 53.20 53.43 52.34 52.55 51.85 54.75 56.87 55.70 52.78 55.57 53.25 50.15 51.78 54.43 57.56 55.17 52.66 53.28 48.65 45.73 50.90
59.61 59.38 59.26 58.53 57.77 57.35 56.44 55.92 54.68 53.40 53.32 54.79 55.91 56.58 63.14 61.99 50.46 52.15 55.36 55.11 56.87 55.06 54.54 53.62 52.68 53.65 54.16 52.94 50.91 53.74 54.37 57.02 56.60 54.81 54.12 55.77 52.07 47.46 50.05 50.60 55.58 53.19 54.10 54.77 53.76 53.34 48.85
59.52 59.56 59.40 58.63 57.98 57.39 56.51 55.62 54.50 53.74 53.92 54.49 56.13 51.82 56.74 59.38 57.28 53.73 53.97 54.57 54.26 56.17 54.48 55.29 53.72 54.30 52.29 51.74 54.34 52.85 53.64 55.59 56.34 55.32 61.15 59.31 52.14 49.49 46.13 49.83 50.72 49.48 52.36 53.81 52.69 48.80 49.29
59.46 59.56 59.30 58.89 57.79 56.85 56.36 55.80 54.72 53.90 53.74 54.61 56.54 53.36 55.79 51.85 54.38 54.30 54.68 55.10 54.25 53.43 55.05 55.39 53.68 52.53 52.17 50.91 51.66 51.78 53.21 53.76 56.36 58.41 56.42 54.09 49.58 51.67 52.20 53.65 53.77 52.29 52.20 53.15 51.71 51.34 49.88
59.20 59.10 59.05 58.64 57.76 56.53 56.08 55.95 55.19 54.36 53.28 55.82 54.72 55.15 57.24 54.33 56.32 56.21 51.67 53.34 53.44 55.37 54.98 53.27 52.67 53.16 53.28 51.70 52.66 51.39 53.05 53.76 52.63 56.02 55.67 55.51 50.90 52.26 49.88 52.70 53.46 51.15 53.61 52.48 50.88 48.46 51.24
58.78 58.58 58.58 58.45 57.56 56.24 55.95 56.01 55.43 54.48 53.56 57.14 59.46 59.49 56.65 51.72 52.90 52.59 54.47 54.02 53.80 55.81 56.91 56.48 54.98 53.82 52.94 53.80 55.39 55.29 55.66 55.25 55.00 54.65 54.32 53.87 52.56 51.00 47.92 52.83 52.58 48.75 52.64 53.65 52.77 52.91 54.42
57.79 57.78 58.28 57.97 57.21 56.18 55.93 55.79 55.93 55.43 54.91 55.96 57.68 57.02 53.42 49.97 51.61 51.35 52.84 54.84 54.94 55.53 55.08 56.56 56.69 54.69 56.18 58.62 57.67 55.86 54.36 53.96 54.67 53.70 54.86 52.96 52.85 51.47 47.66 50.01 42.83 52.29 55.03 56.04 54.58 55.96 57.43
57.47 57.69 58.29 57.68 56.87 55.80 55.70 55.81 55.74 55.95 55.96 55.04 57.57 56.13 54.20 50.86 53.93 52.16 52.48 52.77 55.27 56.52 55.60 55.76 57.08 57.72 59.29 56.75 52.74 50.27 50.43 51.91 52.65 53.98 53.69 54.16 52.25 48.32 46.28 45.80 49.37 52.15 52.13 52.22 53.74 53.41 58.31
57.32 57.49 57.89 57.13 56.42 55.70 55.30 55.64 55.42 55.98 56.26 55.78 57.83 58.95 55.20 51.73 51.87 55.23 53.44 54.07 51.85 54.21 55.34 56.31 59.39 59.02 57.18 54.15 51.54 47.04 45.31 48.57 48.06 50.84 54.81 53.76 54.71 49.11 48.36 44.83 43.13 51.85 56.21 58.12 56.24 48.86 58.30
57.24 57.42 57.12 56.74 56.07 55.29 55.08 55.36 55.20 55.96 56.57 55.50 56.58 59.20 55.13 51.19 54.23 55.72 53.24 52.65 55.50 54.79 54.25 56.82 57.33 55.70 56.32 52.09 48.24 47.01 47.31 51.27 46.35 46.60 48.84 50.36 50.24 47.03 47.43 45.56 49.21 56.01 57.09 58.13 46.80 51.91 59.81
56.60 57.02 56.70 56.09 55.63 54.87 54.68 55.04 54.80 55.22 56.21 56.12 56.27 58.70 54.59 52.21 53.93 55.72 56.57 54.44 54.68 55.47 53.31 57.71 54.82 54.29 52.91 51.09 48.59 49.10 49.01 50.75 50.16 51.36 50.05 49.58 47.90 46.14 47.63 46.16 44.69 58.06 57.04 53.12 58.51 60.29 61.07
56.16 56.38 55.98 55.49 55.11 54.47 54.28 54.93 54.56 55.06 56.06 56.39 53.40 57.88 57.67 51.45 52.62 56.39 56.66 57.85 57.51 57.63 54.99 57.80 55.04 56.50 54.53 50.83 51.71 51.99 49.78 52.04 51.76 47.18 54.04 48.84 52.09 49.26 49.60 51.03 57.91 59.80 58.99 59.01 60.43 60.16 61.35

GFSGBSN_sfc_wetblb_141.txt.gz
Wetbulb
58.39 58.10 58.02 57.65 58.15 57.39 57.12 57.30 57.52 57.28 57.34 57.26 57.17 57.18 57.10 57.07 57.17 57.21 57.99 58.18 57.94 57.81 57.79 57.97 58.42 59.16 57.24 55.64 57.48 66.85 71.75 68.58 60.23 57.31 59.08 58.17 54.69 55.68 53.94 60.46 63.57 62.90 64.05 64.81 64.77 64.56 63.10
58.50 58.39 57.97 57.94 57.49 57.03 57.11 56.95 56.91 56.93 56.93 56.89 56.81 56.87 56.91 57.10 57.16 57.35 58.04 58.04 57.40 57.38 57.89 58.62 58.94 59.23 55.02 53.82 65.19 65.05 60.50 57.78 56.53 57.39 57.03 58.02 55.09 56.51 56.22 61.93 60.52 63.30 61.04 63.68 64.73 64.47 63.31
59.00 58.37 57.98 57.89 57.35 57.13 57.14 56.82 56.80 56.91 56.58 56.46 56.68 56.57 56.58 56.58 56.85 57.09 57.49 57.05 56.96 57.21 58.40 59.83 59.43 58.95 57.44 58.34 61.59 61.64 57.38 53.97 55.74 57.89 55.88 56.54 57.22 55.80 60.19 59.79 63.59 61.55 58.75 61.53 64.54 64.10 62.59
58.80 58.42 58.12 57.48 57.20 57.54 57.05 56.67 56.83 56.66 56.32 56.42 56.42 56.25 56.27 56.27 56.34 56.60 56.72 56.59 56.44 57.47 59.03 60.88 59.22 57.90 55.49 60.69 61.17 60.36 58.84 56.04 56.50 56.19 55.66 55.82 57.02 57.28 56.66 63.52 63.56 61.32 61.40 56.53 59.96 59.84 63.60
58.24 58.22 57.61 57.44 57.67 56.81 56.52 57.32 56.49 56.32 56.25 56.15 55.96 55.92 55.90 55.84 55.91 56.27 55.77 55.86 56.70 58.68 60.83 59.34 56.36 55.21 56.26 62.94 56.55 59.82 57.98 55.68 53.26 53.18 53.67 57.98 53.94 51.48 54.12 52.90 53.05 57.44 52.46 55.67 56.44 60.43 58.98
58.81 58.69 58.36 57.81 57.05 56.81 56.63 57.21 56.23 56.20 56.40 56.00 55.74 56.14 56.48 56.19 56.08 55.37 54.92 55.39 58.22 57.99 60.32 62.10 61.12 54.79 59.56 56.85 57.59 58.95 58.86 59.35 53.12 51.76 51.03 50.28 48.15 46.50 49.49 47.62 45.58 52.49 53.26 54.72 53.94 59.19 59.67
59.11 58.83 58.61 58.30 57.92 57.61 57.36 57.16 56.94 56.60 56.68 56.09 56.30 56.26 56.02 55.94 55.29 54.60 53.52 56.58 55.69 54.12 56.97 55.87 56.07 57.90 56.94 57.10 58.01 56.99 58.08 55.71 54.07 50.02 43.92 47.68 42.93 42.58 47.91 51.35 55.33 57.26 54.57 55.30 55.82 59.41 60.57
59.59 59.18 58.85 58.23 57.87 57.50 57.36 57.18 56.87 56.99 56.89 56.63 56.31 56.18 55.92 55.57 55.00 54.34 51.98 54.85 58.40 57.04 52.38 59.59 60.25 55.54 57.34 58.22 54.69 55.90 56.44 49.71 49.82 45.80 47.21 43.59 41.28 48.19 52.17 53.05 54.42 56.32 54.25 56.04 57.35 60.41 59.13
59.11 58.97 58.78 58.40 57.77 57.04 56.94 56.87 56.56 56.46 56.56 56.35 56.04 55.81 55.35 54.84 54.01 52.57 54.80 58.34 61.93 59.18 51.74 56.37 56.73 56.37 55.66 55.85 54.90 52.85 52.56 51.00 48.24 46.53 46.26 42.77 46.32 50.84 50.40 50.61 51.69 53.34 51.99 54.65 53.29 56.99 58.99
58.29 58.74 58.34 58.22 58.10 57.26 56.78 56.45 56.33 56.28 55.98 55.86 55.90 55.65 54.92 53.16 53.74 57.02 58.06 61.72 61.58 60.02 47.33 52.97 52.25 54.73 56.25 56.84 51.82 57.21 55.84 53.37 51.69 46.82 47.37 45.41 49.61 49.84 48.95 49.00 49.78 47.83 57.18 58.00 57.68 53.73 46.41
58.67 59.05 58.71 58.37 58.06 57.50 56.80 56.13 56.02 56.04 55.82 55.60 55.56 55.19 53.95 53.04 51.34 53.54 59.19 60.10 59.95 57.24 39.61 54.48 54.03 59.05 56.49 52.52 53.25 53.21 57.63 54.21 50.24 50.53 46.60 45.50 47.46 47.42 48.99 49.74 52.71 50.67 56.10 55.12 55.15 50.71 47.57
59.44 59.40 59.21 58.69 58.12 57.71 56.71 56.08 55.90 55.76 55.49 55.35 55.17 54.43 53.26 54.00 53.21 55.90 57.47 58.14 58.18 46.13 41.85 51.87 54.64 53.10 51.93 53.15 52.92 53.87 53.41 54.09 54.86 50.64 48.99 49.13 53.00 50.21 49.76 52.75 52.94 54.63 53.69 53.64 52.29 47.55 41.59
59.91 59.65 59.17 58.68 58.15 57.39 56.74 56.08 55.68 55.57 55.13 54.68 53.86 52.74 51.83 56.13 54.94 59.59 57.54 56.80 45.49 42.04 55.21 50.80 50.55 52.77 51.74 51.31 50.65 50.83 50.36 48.40 45.80 40.77 41.93 47.82 48.95 49.93 52.13 48.15 51.22 50.37 44.69 38.69 39.59 40.63 40.79
60.34 59.84 59.46 58.77 57.97 57.27 57.00 56.26 55.59 55.27 54.98 54.13 52.46 51.34 53.29 56.08 57.28 57.22 57.33 50.17 42.26 50.99 52.55 52.70 51.57 51.20 49.81 52.16 50.64 50.77 49.38 46.53 50.50 48.10 43.52 43.32 40.99 47.78 51.52 48.44 46.01 47.31 44.20 38.67 38.27 39.32 42.49
60.28 60.19 59.91 59.19 58.20 57.44 57.08 55.94 55.35 55.15 54.66 53.54 51.79 57.75 57.70 58.36 58.01 58.06 52.74 44.73 46.88 51.90 54.09 50.74 50.56 48.08 49.33 51.40 49.89 50.12 47.69 47.59 50.48 47.90 42.78 43.71 43.69 50.48 51.10 50.91 48.55 45.76 43.20 47.71 41.45 43.62 41.40
60.20 60.23 60.06 59.52 58.72 57.74 56.96 56.02 55.45 55.06 54.35 53.06 52.02 55.75 57.04 61.75 60.10 55.31 49.43 44.84 49.96 54.43 54.66 51.79 46.41 50.27 49.34 51.49 48.72 48.13 47.87 50.98 51.04 52.71 49.88 46.72 44.75 50.35 51.05 50.62 49.64 45.73 48.08 42.22 45.37 37.56 37.83
60.00 59.99 59.96 59.48 58.88 58.02 57.30 56.18 55.35 54.64 53.62 52.74 54.32 54.83 58.92 59.03 58.36 52.65 46.61 48.58 52.13 55.09 55.66 51.37 49.09 48.73 49.43 51.55 52.13 49.05 49.83 51.18 53.37 52.50 49.67 49.19 46.59 49.07 49.66 49.41 47.84 48.62 44.09 48.18 46.99 44.65 39.55
59.57 59.37 59.42 59.46 58.96 58.08 57.54 56.26 54.94 53.47 52.50 53.84 54.70 50.63 59.61 60.42 51.49 51.97 49.46 52.02 51.69 53.76 55.29 52.23 52.20 50.52 49.72 51.98 49.77 50.10 51.58 52.94 55.08 53.38 48.85 50.67 45.97 43.20 47.69 52.74 54.35 51.65 47.16 48.02 41.70 41.00 43.99
59.37 59.24 59.54 59.44 59.10 58.26 57.50 56.14 54.70 53.37 53.26 51.57 50.59 53.19 60.55 59.31 47.98 48.93 52.09 52.94 54.00 53.04 53.79 52.06 50.89 51.85 51.47 48.64 47.40 51.05 53.69 55.41 55.64 53.48 48.64 49.82 45.08 40.38 44.35 48.84 51.64 49.33 49.98 49.29 47.23 46.74 43.45
59.46 59.60 59.84 59.58 59.40 58.33 57.31 55.81 54.50 53.51 53.68 52.44 51.37 49.69 54.71 56.69 55.56 51.67 50.35 50.48 50.97 55.46 54.52 53.86 52.65 52.12 50.16 48.00 48.99 49.93 52.75 55.07 55.25 54.39 59.94 53.90 44.61 42.87 39.75 45.16 48.58 46.58 50.20 49.91 46.75 40.83 42.83
59.29 59.65 59.77 59.62 59.35 58.45 57.15 55.79 54.84 53.81 53.51 52.52 53.19 50.72 54.83 49.29 51.07 51.43 52.48 51.49 50.15 50.51 55.35 53.43 52.28 52.64 50.33 44.70 48.13 48.11 51.85 52.77 54.66 57.91 53.16 48.44 42.45 44.24 46.87 52.04 50.66 49.42 49.67 51.28 47.30 46.57 43.28
58.77 59.13 59.41 59.19 59.02 58.20 56.92 56.22 55.43 54.36 53.17 52.76 50.73 51.95 53.87 51.98 52.96 51.44 50.13 51.29 50.44 51.47 53.53 53.06 50.86 52.61 50.92 47.83 48.94 48.62 50.48 49.41 49.49 52.31 50.80 50.83 43.68 45.48 45.66 50.41 51.30 49.36 51.40 52.40 50.24 50.55 49.43
58.81 59.13 58.65 58.53 58.83 57.95 56.73 56.33 55.63 54.58 53.12 54.83 55.96 56.94 53.41 50.13 50.95 49.31 48.88 50.37 50.98 52.93 54.19 56.64 54.92 52.30 50.85 51.91 53.10 51.79 50.96 49.63 47.16 49.00 50.44 49.75 46.75 44.30 40.38 48.42 50.04 45.07 49.30 51.19 51.31 51.33 49.92
58.04 58.08 58.09 58.21 58.69 57.63 56.52 56.32 56.04 55.59 54.58 53.90 54.35 54.41 50.75 47.45 50.33 50.36 51.97 51.63 51.31 52.33 51.70 55.41 56.55 54.33 55.86 56.08 54.80 52.60 51.12 49.46 50.78 50.06 47.98 46.99 45.58 44.63 40.58 43.77 36.20 45.23 51.80 53.80 53.10 54.02 53.90
57.44 57.54 57.79 58.20 58.39 57.19 56.06 55.83 55.98 55.64 55.43 53.97 54.94 54.38 51.48 47.01 50.86 51.34 52.70 52.35 53.21 53.33 52.29 55.10 56.39 56.91 56.12 54.94 49.41 46.68 45.80 46.79 49.58 51.27 48.86 48.13 47.33 41.65 39.17 38.44 43.88 49.63 51.21 50.09 49.88 50.04 54.74
57.26 57.28 57.42 58.25 57.87 56.76 55.80 55.50 55.87 55.83 55.73 54.60 54.93 58.24 53.71 48.25 47.60 52.06 50.11 52.09 49.82 50.39 52.34 55.69 58.40 58.34 55.19 52.16 48.83 42.91 41.49 47.15 45.79 48.65 49.87 49.47 49.78 43.54 40.14 37.48 37.88 47.99 55.08 56.89 55.64 47.98 56.21
56.76 57.24 57.56 57.78 57.10 56.34 55.36 55.27 55.54 55.49 55.76 54.90 54.27 57.57 54.02 48.31 50.77 51.40 48.85 49.77 53.35 52.03 49.90 54.68 55.35 55.37 56.78 48.60 45.79 43.65 43.48 51.41 43.81 43.85 42.94 45.15 44.62 42.15 41.51 39.86 46.32 53.17 55.66 55.67 42.86 46.66 57.20
56.15 56.70 56.96 56.74 56.25 55.84 55.06 54.88 55.40 54.88 55.92 55.33 54.02 58.45 53.49 49.33 49.78 51.86 52.69 50.03 51.43 52.50 49.97 53.27 53.05 53.69 51.61 46.91 46.47 45.80 45.18 48.01 46.43 48.08 45.40 44.93 43.30 41.34 41.34 38.52 40.42 56.18 55.33 50.41 53.40 57.96 58.76
55.35 56.07 56.37 55.79 55.29 55.29 54.79 54.52 54.92 54.94 55.64 56.21 52.28 57.64 57.20 50.47 49.38 53.08 53.18 53.94 53.71 54.97 52.72 53.53 54.30 52.73 52.99 49.48 49.57 49.27 46.89 48.75 47.84 42.70 51.99 44.53 47.41 46.33 44.93 47.06 54.09 54.10 53.75 55.49 57.01 56.88 58.18

GFSGBSN_sfc_wetblb_147.txt.gz
Wetbulb
58.53 58.25 57.95 57.85 57.63 57.52 57.17 57.43 57.16 57.01 57.01 56.85 56.72 56.48 56.58 56.68 56.59 56.77 56.87 56.73 56.78 56.81 56.88 57.36 58.08 59.28 55.30 52.14 56.01 67.27 72.25 70.65 61.03 54.19 52.27 53.75 54.19 52.12 56.07 59.11 59.65 57.45 61.69 63.11 63.05 62.51 62.45
58.06 58.00 58.05 57.90 57.31 57.36 57.30 57.39 57.20 57.23 56.85 56.69 56.54 56.66 56.58 56.82 57.04 57.20 57.04 56.58 56.40 56.60 57.59 58.13 59.46 59.40 53.13 49.47 62.37 67.05 62.67 58.14 53.91 53.18 53.16 55.46 54.70 54.56 50.72 57.84 57.58 59.20 62.61 62.20 62.62 62.29 62.14
58.39 58.77 58.18 57.69 57.84 57.60 57.55 57.09 57.02 57.00 57.07 57.08 56.89 56.89 57.19 56.69 56.64 56.53 56.87 56.47 56.47 57.04 57.68 58.92 60.18 58.27 54.19 53.67 61.97 62.50 55.66 52.00 51.55 52.72 52.32 54.94 55.38 50.84 55.23 58.94 63.55 62.44 59.62 62.12 62.23 62.39 60.91
59.24 58.72 58.34 58.49 57.72 57.48 57.23 57.25 57.20 57.04 57.23 57.09 57.25 57.16 57.18 57.06 56.84 56.54 56.05 55.99 56.44 57.28 58.14 59.50 60.78 55.52 53.03 61.99 59.91 58.69 53.34 51.08 51.71 52.29 53.58 54.83 53.32 50.05 57.97 62.17 61.09 59.38 59.64 54.27 60.63 61.48 62.84
59.15 59.20 59.40 58.99 58.28 57.56 57.43 57.55 57.37 57.44 57.14 56.75 57.22 57.20 57.06 56.82 56.44 56.03 55.60 55.58 56.75 58.16 58.89 60.16 53.38 52.24 51.26 63.64 55.39 57.14 54.79 53.51 51.59 50.44 51.69 56.53 49.56 48.12 56.12 54.49 52.99 57.51 52.51 53.40 56.86 61.43 60.87
59.50 59.52 59.42 59.27 58.93 58.36 58.04 57.78 57.46 57.24 57.12 56.98 57.04 56.91 56.79 56.83 56.24 55.44 54.16 54.95 58.27 58.32 59.17 59.69 59.01 50.02 53.99 55.42 53.77 55.60 55.46 55.70 51.39 48.48 48.24 47.01 44.95 43.55 43.66 44.35 42.20 48.76 52.11 54.21 53.61 58.79 58.67
59.48 59.74 59.61 59.42 58.91 58.64 58.30 57.98 57.66 57.28 57.14 56.98 56.88 56.53 56.26 56.16 55.60 54.34 51.10 50.89 51.30 49.72 54.77 50.53 51.26 52.64 55.16 56.85 55.52 53.72 55.73 53.47 50.24 46.11 40.64 42.90 40.55 39.90 44.31 48.37 49.30 52.72 53.70 53.16 55.29 59.39 57.70
59.93 59.82 59.62 59.35 58.92 58.74 58.32 57.94 57.49 57.30 57.08 56.84 56.53 56.29 56.02 55.60 54.83 54.00 49.34 48.68 51.70 52.59 48.85 55.07 56.06 56.03 58.01 54.42 51.44 52.98 53.59 47.94 46.73 43.07 42.60 40.49 37.59 43.12 45.98 47.17 47.14 46.53 52.29 53.02 56.88 59.76 59.08
60.14 59.76 59.38 59.20 59.06 58.77 58.37 58.01 57.47 57.07 56.63 56.37 56.29 56.02 55.48 54.83 54.04 49.96 48.66 50.81 54.98 52.38 46.84 51.54 54.36 54.82 54.97 55.27 51.94 51.66 52.20 48.68 44.82 42.46 42.02 38.79 42.22 45.79 44.73 43.84 43.73 42.14 51.12 53.20 53.28 56.86 58.32
60.04 59.57 59.27 59.27 59.13 58.83 58.41 57.99 57.43 57.01 56.31 55.96 56.05 55.88 54.81 52.95 50.00 49.16 49.09 52.22 51.66 51.91 42.33 47.60 50.12 54.60 52.98 52.59 49.98 54.91 53.09 48.76 45.92 43.39 42.93 41.50 45.34 45.09 43.41 43.31 43.30 37.64 56.70 57.38 54.72 51.20 46.14
59.74 59.62 59.41 59.37 59.32 59.00 58.58 58.10 57.44 56.99 56.16 55.82 55.78 55.17 53.86 52.57 47.74 49.06 51.25 51.98 51.66 51.40 36.59 52.22 50.44 55.39 51.76 50.84 50.05 50.77 51.46 49.34 46.01 46.94 45.09 44.74 43.46 43.24 42.33 44.11 46.64 45.79 58.04 54.37 53.97 49.53 44.45
59.79 59.52 59.62 59.55 59.44 59.04 58.44 57.87 57.36 56.74 55.98 55.38 55.19 54.34 53.20 49.90 47.32 50.88 53.13 51.59 51.26 42.98 37.60 48.95 51.08 49.15 48.50 48.29 48.68 49.95 50.87 50.74 50.80 47.41 45.66 46.76 48.55 46.92 46.81 49.26 49.86 55.22 51.59 48.22 47.21 44.86 38.78
59.76 59.60 59.48 59.37 59.19 58.78 58.22 57.79 57.28 56.36 55.52 54.56 53.69 52.77 51.83 52.86 48.82 50.86 50.80 50.11 41.55 36.95 49.25 48.01 46.59 47.40 46.63 46.38 47.43 47.71 46.71 44.85 43.25 39.27 37.80 44.16 45.05 46.33 48.73 44.42 47.15 45.96 41.64 36.08 38.24 37.98 37.89
59.87 59.35 59.13 58.95 58.54 58.42 58.18 57.99 57.06 56.06 55.03 53.87 52.11 51.27 51.15 51.97 50.90 52.18 49.38 45.68 36.48 45.64 45.84 49.92 47.81 46.31 45.43 46.93 46.04 46.43 44.38 42.60 44.88 42.59 38.77 38.46 38.87 44.53 47.71 45.87 43.79 42.42 41.00 36.38 32.52 35.37 38.25
59.61 59.61 59.32 58.94 58.38 58.34 58.36 57.56 56.58 55.54 54.38 53.10 51.46 49.11 49.04 51.15 52.60 49.33 47.37 38.50 39.61 44.46 49.08 48.14 45.64 43.54 42.79 46.40 45.61 44.71 44.11 42.88 45.65 44.67 41.16 37.46 41.26 46.73 48.01 47.37 46.87 41.84 37.78 40.96 36.10 35.69 35.95
59.50 59.39 59.37 59.14 58.42 58.34 58.18 57.52 56.32 55.17 53.97 52.89 48.40 47.43 49.72 53.25 53.46 48.65 45.41 40.52 42.30 48.76 49.86 47.84 41.69 43.14 41.62 44.43 44.43 43.10 42.69 46.23 46.71 47.63 45.18 43.26 39.15 45.35 49.96 49.14 50.87 43.90 44.55 37.97 38.87 33.98 32.37
59.36 59.36 59.22 58.88 58.50 58.52 58.46 57.60 56.02 54.42 53.31 52.26 48.01 47.20 51.32 52.62 48.45 46.12 42.47 43.33 46.12 50.55 51.86 47.21 44.35 43.66 43.38 43.69 45.69 42.89 44.93 47.88 49.76 47.69 47.32 43.57 42.55 43.09 48.24 45.68 44.03 45.39 43.32 43.22 42.24 39.04 35.83
58.74 58.68 58.72 58.74 58.60 58.78 58.62 57.26 55.17 53.26 51.94 50.32 44.58 41.87 51.63 51.23 41.99 40.24 39.29 45.81 48.11 48.15 50.42 49.34 47.39 45.50 43.61 45.68 43.28 45.54 46.18 48.30 51.25 50.37 46.28 45.12 41.28 40.22 43.25 48.48 49.98 46.89 44.32 42.73 38.21 38.34 38.91
58.50 58.44 58.72 58.70 58.82 59.02 58.50 56.72 54.35 52.86 52.43 49.70 41.77 42.79 52.47 49.32 38.54 39.51 44.12 47.68 49.36 48.21 48.04 49.06 47.77 47.74 46.54 44.49 41.36 46.84 48.71 51.55 52.73 49.82 46.62 46.28 40.31 38.27 40.77 42.27 45.94 44.11 45.18 44.02 42.29 41.05 38.54
58.37 58.50 58.72 58.86 58.92 59.16 58.13 56.26 54.08 52.96 52.55 47.90 43.66 41.65 47.17 48.30 45.15 44.17 44.00 45.90 46.51 52.19 49.48 50.39 49.72 48.20 44.36 42.63 43.12 44.33 47.10 51.47 52.12 51.27 59.21 50.75 38.75 39.55 36.90 39.51 42.59 43.37 46.67 45.32 41.97 38.73 38.63
57.75 58.27 58.84 58.98 59.25 58.75 58.01 56.10 54.51 53.26 52.70 48.03 45.32 43.90 45.85 42.58 44.38 44.93 44.16 45.94 46.87 45.75 49.53 48.73 47.33 48.23 44.59 40.06 41.36 43.06 46.04 47.76 50.36 57.96 47.79 44.75 39.48 38.42 40.48 44.00 46.40 45.59 46.78 47.10 43.44 41.95 41.29
57.24 57.67 58.23 58.61 58.45 58.39 57.97 56.25 54.79 53.68 52.20 48.27 45.39 45.09 46.55 43.39 44.85 43.82 42.56 41.55 46.13 48.61 46.91 46.11 45.63 49.27 48.08 42.13 43.91 44.26 45.94 43.55 45.44 47.23 44.30 43.13 38.96 38.97 40.68 46.77 47.13 45.46 47.89 48.05 47.27 47.02 46.79
56.77 57.05 57.52 58.01 58.15 58.43 57.79 56.19 55.03 53.64 51.30 46.06 47.09 47.22 46.84 42.52 42.76 41.27 41.80 45.88 47.57 49.59 50.21 51.51 50.71 48.72 47.75 49.37 49.13 46.66 48.28 47.41 47.92 46.81 44.38 43.42 41.33 38.50 36.96 41.59 44.32 41.10 45.91 46.63 46.87 48.01 48.64
56.55 56.94 57.42 57.73 57.96 58.37 57.46 56.11 55.46 54.32 52.58 48.15 46.85 46.46 43.88 40.95 44.10 44.75 46.89 47.24 47.82 48.42 47.22 51.48 52.10 48.38 51.86 50.91 48.57 47.54 45.73 44.72 46.59 43.06 45.86 41.98 39.67 37.45 36.31 37.67 32.85 41.67 48.27 50.74 49.76 51.21 51.88
56.44 56.96 57.11 57.45 57.69 58.18 57.34 56.12 55.75 55.05 54.39 49.18 48.26 46.92 44.50 40.62 45.95 46.21 45.73 45.68 45.34 46.76 47.72 50.91 53.26 55.14 55.69 49.42 44.95 42.00 40.51 41.49 43.39 44.22 42.73 43.78 40.19 36.26 35.55 34.30 38.82 46.03 48.46 49.65 47.89 47.62 53.77
55.13 55.88 56.68 57.13 57.86 58.15 56.86 55.89 55.72 55.44 54.30 50.07 48.53 49.54 49.92 45.49 43.28 48.41 45.75 45.59 41.62 44.42 48.27 50.84 53.76 54.95 54.10 47.28 44.81 38.21 37.31 40.65 41.04 42.57 42.21 41.78 41.15 39.82 33.92 33.62 33.79 42.46 50.90 53.42 51.79 43.70 54.06
54.54 55.13 55.80 56.76 57.53 57.35 56.61 56.12 55.53 55.45 54.18 50.68 49.05 49.91 49.12 45.80 47.35 45.32 44.77 45.65 46.97 46.69 45.43 49.42 50.50 52.16 53.37 44.80 41.41 40.49 40.25 46.25 41.21 40.42 40.05 38.93 38.38 36.85 35.40 34.28 39.49 46.28 52.81 52.98 41.30 43.18 54.23
53.48 54.26 54.83 56.00 57.24 56.65 56.12 55.62 55.08 55.17 54.97 51.68 49.29 52.34 50.60 48.09 46.61 49.21 49.83 46.78 46.69 46.47 43.69 48.94 49.07 50.28 50.22 45.68 42.58 41.85 41.58 44.05 43.06 44.35 40.80 39.66 38.46 36.99 35.22 36.31 35.70 52.01 51.85 46.55 48.03 51.79 54.89
52.99 53.30 54.22 56.16 55.76 55.60 55.56 55.14 54.75 54.97 54.83 54.10 49.15 51.27 53.22 49.70 47.21 51.70 52.30 52.79 51.50 50.96 47.21 47.91 48.75 49.97 52.24 47.55 46.03 45.34 43.50 44.89 41.80 40.26 46.27 41.27 43.15 40.91 40.82 39.49 45.23 49.76 50.48 52.95 54.65 54.57 55.02